Temperature
16 16 16 16 17 17 18 21 23 24 26 27 27 27 27 26 25 22 20 19 20 20 19 18 17 16 16 16 16 15 15 15 15 15 14 14 14 14 14 14 14 14 13 13 13 13 13 13 14
16 15 16 17 17 17 19 21 23 24 26 26 26 26 26 25 23 21 20 19 19 19 19 18 17 16 16 16 15 15 15 15 15 14 14 14 13 13 13 13 13 13 13 13 13 13 13 13 14
15 16 17 17 17 18 20 23 24 25 26 25 25 25 25 25 22 21 20 19 18 18 18 17 17 16 16 15 15 15 15 15 14 14 14 13 13 13 13 13 13 13 13 13 13 13 13 13 13
15 16 17 17 18 20 21 23 24 25 25 25 25 25 24 23 22 21 20 19 18 17 17 17 16 16 15 15 15 15 14 14 14 14 13 13 13 13 13 13 13 13 12 12 12 13 13 13 13
15 16 16 16 18 20 22 24 25 24 24 24 24 23 23 22 21 21 20 18 17 16 16 16 16 15 15 15 15 15 14 14 13 13 13 13 13 13 13 13 12 12 12 12 12 12 12 13 13
15 17 16 16 18 20 22 24 24 24 24 24 24 23 21 21 21 21 19 18 17 16 16 16 15 15 15 15 15 14 14 14 13 13 13 13 12 13 12 12 12 12 12 12 12 12 12 12 13
15 16 16 17 19 20 22 24 24 23 23 24 24 23 21 20 20 20 18 17 16 16 16 15 15 15 15 14 14 14 14 13 13 13 13 12 12 12 12 12 12 12 12 12 11 12 12 12 12
15 16 16 17 18 20 22 24 24 24 23 24 24 23 21 20 20 18 17 17 16 15 15 15 15 14 14 14 14 14 13 13 13 13 12 12 12 12 12 12 11 11 11 11 11 12 12 12 12
14 14 15 17 18 20 22 23 24 23 23 23 23 23 22 20 19 18 17 16 16 15 15 14 14 14 14 14 13 13 13 13 13 12 12 12 12 12 11 11 11 11 11 11 11 12 12 11 11
14 13 15 18 19 20 21 22 23 22 22 22 22 21 20 19 18 18 17 16 16 15 14 14 14 14 14 13 13 13 13 12 12 12 12 12 11 11 11 11 11 11 11 11 11 11 11 11 11
14 14 16 18 19 20 20 21 22 21 20 22 22 20 19 18 18 17 17 16 16 15 14 14 14 14 13 13 13 13 12 12 12 12 12 11 10 10 11 11 11 11 11 11 11 11 11 10 10
14 15 16 17 18 19 20 20 21 21 21 22 22 21 20 19 18 17 17 16 16 15 14 14 14 13 13 13 13 13 12 12 12 12 11 11 10 11 11 11 11 11 11 11 11 10 10 10 10
14 15 16 17 18 18 19 19 19 20 21 21 21 21 20 19 19 18 17 17 16 15 15 14 14 14 13 13 13 12 12 12 12 11 11 11 11 11 11 11 11 11 10 10 10 10 10 10 9
14 15 16 17 17 18 18 18 19 19 20 20 20 20 20 19 18 18 17 17 16 16 15 14 14 14 13 13 13 12 12 12 12 11 11 11 11 11 11 11 11 10 10 10 10 10 10 9 9
13 13 14 16 16 17 17 17 17 19 19 20 20 20 19 19 19 18 18 18 17 16 15 15 14 14 14 13 13 12 12 12 12 12 11 11 11 11 11 11 11 10 10 10 10 10 9 9 9
12 12 12 14 16 17 16 15 17 19 19 19 20 20 20 19 19 19 19 18 17 16 15 15 14 14 14 13 13 12 12 12 12 12 12 11 11 11 11 11 11 11 10 10 10 10 9 9 9
10 11 11 13 16 16 16 15 17 19 19 19 19 20 20 20 19 19 19 19 18 17 16 15 15 14 14 13 13 12 12 12 12 12 12 11 11 11 11 11 11 11 10 10 10 10 9 9 9
10 11 12 13 15 16 15 15 17 19 19 19 19 20 20 20 20 20 19 19 18 17 16 16 15 14 13 13 13 12 12 12 12 12 12 12 11 11 11 11 11 11 10 10 10 10 9 9 9
11 11 12 13 16 15 15 16 17 18 18 18 19 20 20 20 20 20 20 19 19 18 17 16 15 14 13 13 13 13 13 12 12 12 12 12 12 12 12 11 11 11 11 10 10 10 9 9 9
10 10 11 13 15 15 15 15 16 17 18 18 19 20 20 20 21 20 20 19 19 18 17 16 15 14 14 14 14 14 13 13 12 12 12 12 12 12 12 12 11 11 11 10 10 10 9 9 9
9 10 10 11 13 14 14 14 15 17 18 19 19 20 20 21 21 21 20 20 19 18 17 16 16 15 14 14 13 12 12 11 12 12 12 12 12 12 12 12 11 11 11 11 10 10 10 9 9
8 10 11 11 11 11 12 11 14 16 17 18 18 19 20 20 21 21 20 20 19 19 18 17 16 15 15 14 13 13 13 13 15 14 14 13 12 12 12 12 11 11 11 11 10 10 10 9 9
9 10 10 10 10 10 11 11 13 16 16 17 18 19 20 20 20 21 21 20 19 19 18 17 16 15 15 14 14 14 14 15 14 13 13 13 12 12 12 12 11 11 11 11 10 10 10 9 9
10 10 9 9 9 9 10 10 11 15 16 17 18 19 19 20 20 20 20 20 19 19 18 17 16 15 15 14 14 14 15 15 14 13 13 13 13 12 12 12 11 11 11 11 10 10 10 9 9
9 8 7 7 8 8 11 11 12 15 17 17 18 18 19 19 19 20 20 20 19 19 18 17 16 15 15 14 13 14 14 14 14 15 14 14 13 13 14 13 12 11 11 11 10 10 10 10 9
8 7 7 8 8 10 11 11 13 15 17 18 18 19 19 19 19 19 19 19 19 18 18 17 16 16 15 14 14 14 14 14 14 14 14 14 15 15 15 13 12 12 11 10 10 10 10 9 9
7 7 8 8 9 10 11 13 14 15 16 16 17 18 18 18 18 19 19 19 18 18 18 17 17 16 15 14 14 14 13 13 14 14 13 13 14 14 14 13 13 12 11 10 10 10 9 9 9
7 7 7 7 7 9 11 12 13 14 15 16 16 16 17 18 18 18 18 18 18 18 18 17 17 16 16 15 14 14 14 14 14 13 13 13 13 13 13 13 12 11 11 10 10 10 9 9 9
6 6 6 6 7 8 9 11 14 14 15 15 15 16 16 17 17 17 17 18 18 17 17 17 16 16 15 15 15 14 14 13 13 13 13 13 12 12 12 12 12 11 10 10 10 10 9 9 9
5 5 5 5 6 8 8 11 14 14 14 15 14 15 16 16 16 16 16 17 17 17 17 16 16 16 15 15 15 15 14 14 13 13 13 13 12 12 12 11 11 11 10 10 10 10 9 9 9
Wind_Speed
9 11 9 4 4 7 14 12 13 12 9 5 2 3 4 4 1 6 8 12 17 21 23 25 25 23 22 22 22 21 20 19 18 18 18 17 17 17 17 17 17 17 17 18 18 19 18 18 18
10 11 7 4 7 11 12 15 17 13 6 2 4 3 4 1 7 10 9 14 19 21 22 23 25 24 23 23 22 21 20 20 19 18 18 17 17 17 17 17 17 17 18 18 18 18 18 17 17
12 12 6 5 9 14 11 11 13 11 4 4 1 3 5 0 7 8 11 18 19 19 21 23 26 25 24 24 23 22 21 20 19 18 18 17 17 17 17 17 17 17 17 17 17 17 17 16 16
7 7 5 10 18 17 16 14 4 3 3 5 6 5 3 3 4 10 16 18 18 19 19 24 25 25 24 24 23 22 21 20 19 18 18 18 18 18 17 17 17 17 17 17 17 16 16 15 15
8 5 10 15 21 19 16 15 6 4 5 7 8 6 3 3 11 16 15 16 18 18 19 24 25 25 24 24 23 22 21 20 19 19 18 19 18 17 17 16 16 16 16 16 15 15 15 14 13
6 6 12 18 20 19 18 17 11 7 7 8 10 9 3 6 11 13 13 14 16 18 19 22 24 24 24 23 23 22 21 20 19 19 19 19 18 17 16 16 15 15 15 15 14 14 14 13 12
11 10 17 19 18 17 17 15 14 9 9 8 8 8 6 8 10 13 13 13 15 17 18 17 20 21 23 23 22 21 21 20 20 19 19 18 18 17 16 15 15 15 14 14 14 14 13 12 11
11 7 17 21 20 17 13 12 11 9 9 8 7 8 6 11 13 12 12 13 15 16 17 16 16 18 19 19 21 21 21 20 19 19 19 19 17 16 16 15 14 14 14 13 13 13 12 11 9
13 14 21 21 17 14 13 13 8 4 5 8 6 2 9 17 15 13 12 11 13 16 16 15 15 15 17 18 20 21 20 20 20 19 20 19 16 16 15 15 14 14 13 13 12 12 11 9 7
12 19 29 20 15 13 12 11 7 6 8 9 4 5 14 15 15 16 16 16 16 17 17 16 16 15 15 16 18 17 17 18 18 17 18 15 15 15 15 16 14 14 13 12 11 10 10 8 7
14 22 22 21 19 16 14 11 7 8 9 11 10 12 15 15 14 15 16 15 16 16 16 16 15 15 14 11 14 12 14 15 16 18 17 15 14 15 15 13 12 13 12 11 10 9 8 8 7
22 24 23 21 17 16 15 12 11 10 10 7 8 14 16 16 16 16 16 16 16 16 16 16 16 15 14 12 10 10 9 10 11 16 17 13 9 10 11 10 12 12 11 11 10 8 7 7 7
28 27 24 20 19 18 15 15 13 13 10 9 6 9 15 17 17 15 14 14 15 16 16 16 16 16 14 12 9 9 8 9 12 15 16 14 9 7 9 9 11 11 11 10 7 6 6 6 5
20 22 24 22 20 18 18 16 15 15 11 11 9 9 13 15 16 15 14 15 17 17 18 16 16 16 14 12 10 9 8 10 12 13 15 16 13 9 8 7 8 9 11 11 7 6 5 4 5
21 22 22 23 22 19 15 21 22 17 13 14 13 11 13 14 14 15 16 16 18 18 18 17 16 17 16 13 12 9 9 10 8 12 15 16 15 12 9 6 6 8 11 11 7 6 5 4 4
15 19 22 21 22 21 17 23 19 17 18 18 15 13 13 14 15 15 15 15 16 17 18 18 16 17 16 13 11 9 9 9 8 12 14 15 16 16 10 6 6 10 11 8 4 4 4 4 3
13 19 23 21 21 21 22 21 15 16 19 19 17 15 14 15 15 15 15 16 17 19 19 19 17 17 16 14 11 9 9 8 9 12 12 14 16 17 12 7 7 12 8 5 4 4 4 4 3
15 18 20 22 18 22 25 24 16 14 17 18 18 17 15 16 17 15 16 16 17 18 19 19 17 16 15 13 10 8 9 8 8 9 10 14 15 17 13 8 9 10 6 5 5 5 4 4 4
19 19 20 20 17 19 23 23 20 18 16 16 16 17 17 16 16 16 16 16 16 17 20 20 19 18 16 14 13 12 12 10 9 8 12 15 15 16 12 7 8 8 7 7 7 5 6 4 4
23 23 22 17 16 17 18 21 19 19 18 15 15 15 16 16 16 17 16 17 17 19 20 21 21 20 18 15 14 11 10 8 8 7 10 15 15 16 13 9 8 8 7 8 8 6 5 4 5
23 23 21 17 13 14 13 17 18 15 19 18 16 15 14 16 16 17 18 17 17 19 20 21 22 21 20 17 12 11 9 8 8 11 11 12 15 15 13 12 9 9 9 8 9 8 8 6 5
20 19 19 19 15 9 10 10 15 16 17 20 19 17 16 15 15 15 17 17 18 18 18 20 22 21 20 19 17 18 16 14 13 12 10 11 13 14 15 14 12 10 9 9 9 9 7 8 6
15 13 16 17 15 13 12 10 9 15 19 20 18 18 17 15 15 15 15 17 17 17 18 19 20 21 20 21 20 19 14 12 9 10 12 13 12 13 14 14 12 11 10 10 10 9 8 7 6
14 12 12 13 12 16 18 14 9 13 19 18 19 18 17 16 14 14 14 15 15 16 17 17 19 20 21 22 21 20 18 15 14 14 15 14 11 12 14 14 12 11 10 11 10 10 11 9 8
12 9 7 9 11 10 13 14 10 10 13 14 15 16 15 14 13 12 12 14 16 17 18 18 19 19 21 22 22 22 20 18 18 16 16 14 12 12 17 15 14 12 10 10 10 11 11 10 9
13 12 9 6 7 7 11 13 9 12 11 10 11 12 13 14 13 13 13 13 15 17 19 19 20 18 20 22 22 21 19 15 14 15 13 15 13 14 14 16 14 13 12 11 11 9 10 10 10
8 12 9 6 7 6 8 9 9 9 11 11 9 9 10 12 12 12 12 13 14 16 18 20 20 18 19 21 21 20 20 17 15 14 13 13 11 12 15 16 15 14 13 13 12 10 11 10 10
8 5 5 7 6 7 7 10 7 11 11 11 9 7 7 7 9 9 10 11 12 14 15 16 18 18 17 19 20 18 18 18 15 13 14 14 14 13 15 16 16 15 14 14 12 9 10 11 10
6 7 5 5 5 4 4 5 6 7 9 9 8 8 7 6 6 7 7 7 9 10 12 14 15 15 16 18 17 17 17 16 15 14 14 14 13 14 15 16 16 16 15 14 13 12 12 13 11
4 5 7 6 5 5 5 5 2 1 3 6 7 6 6 5 4 4 5 6 6 9 10 11 13 14 14 16 17 17 16 16 16 15 15 14 14 14 15 15 15 15 15 14 15 14 13 14 13
Wind_Direction
237 238 232 230 234 233 240 240 252 249 248 249 262 280 298 279 308 128 160 154 131 142 149 153 152 151 149 145 140 136 133 129 126 124 121 118 116 112 108 106 104 103 100 97 94 92 91 89 88
239 230 230 229 231 234 238 234 246 252 242 29 3 322 288 356 83 115 148 137 137 142 148 153 152 151 149 146 142 138 136 132 128 126 124 121 118 114 110 109 107 104 101 99 96 94 93 92 90
248 236 222 224 231 233 242 233 224 232 195 128 152 268 260 71 119 133 137 135 138 141 149 151 152 150 149 147 144 141 138 135 132 129 127 125 121 117 113 111 108 105 102 101 100 98 97 94 91
232 223 236 236 238 236 246 263 280 217 172 163 189 207 175 13 78 120 130 139 140 142 146 149 153 151 149 147 145 143 140 138 135 133 130 128 123 119 115 112 110 109 107 104 103 101 98 96 92
234 224 226 237 243 247 252 257 253 226 210 194 208 225 133 82 97 119 135 144 143 144 143 151 154 152 150 148 147 144 142 141 138 135 132 129 124 121 119 116 115 114 112 110 107 104 101 97 94
219 221 227 235 241 243 246 256 251 220 229 206 199 222 157 132 122 134 143 145 143 142 143 152 155 153 152 151 149 147 146 145 142 138 135 130 127 125 124 122 120 119 116 114 111 108 103 99 95
223 226 236 242 245 243 238 236 237 220 229 227 201 214 156 156 139 143 145 144 140 140 144 151 154 153 153 152 151 150 149 147 144 141 136 133 131 130 129 126 124 123 119 117 115 112 107 102 98
228 242 243 241 245 248 255 244 229 218 228 239 216 215 174 149 139 143 145 143 141 142 147 154 155 154 153 152 151 150 149 147 145 140 135 133 133 133 132 130 129 126 123 121 118 115 111 107 105
233 235 238 234 239 248 255 259 244 217 242 256 248 259 121 133 141 145 146 145 146 149 152 159 160 158 156 154 152 149 148 146 142 137 135 135 135 136 136 132 133 131 129 127 125 122 121 120 120
218 230 234 237 247 255 257 254 241 210 219 241 229 112 121 138 151 157 162 163 161 160 160 164 163 160 157 156 152 152 150 148 147 145 146 151 149 147 137 137 138 137 135 133 134 138 141 147 155
219 232 240 242 249 261 265 264 249 229 225 222 203 158 146 156 165 170 173 172 167 164 164 166 163 160 157 152 156 158 156 160 161 156 164 164 147 134 132 137 136 138 143 144 147 160 183 171 156
236 237 238 244 249 255 259 264 257 238 238 242 219 168 159 169 177 181 179 175 168 168 169 167 163 160 158 155 160 159 157 166 163 162 170 159 144 141 145 148 155 160 165 155 168 191 181 152 151
237 241 243 242 247 253 255 252 255 252 247 255 251 172 172 177 184 187 184 175 170 172 171 170 164 162 160 158 163 162 161 165 161 162 171 158 149 150 150 159 162 171 162 159 185 183 156 149 144
245 246 246 245 243 244 248 250 246 246 246 246 239 197 187 189 189 186 185 179 176 175 174 171 167 164 162 163 165 164 163 163 160 161 168 162 159 155 154 156 161 166 158 168 182 167 150 142 130
251 255 250 242 241 241 243 246 238 237 237 240 233 213 201 201 196 193 188 183 178 177 173 173 171 167 167 166 168 164 164 165 158 162 170 165 162 157 157 152 157 159 161 166 176 161 147 129 125
242 245 245 237 231 231 231 242 233 224 228 234 231 222 208 207 205 198 191 184 178 174 173 173 174 171 170 169 167 163 167 165 160 164 170 168 164 161 159 151 158 161 163 163 158 145 137 134 143
232 232 235 237 228 224 225 241 236 223 221 224 227 226 214 206 208 204 193 185 179 176 174 173 173 173 171 168 166 165 168 165 163 166 170 172 168 165 162 156 162 162 158 157 162 153 151 151 154
220 227 232 233 225 224 227 234 233 231 225 222 220 222 220 210 206 203 195 187 180 176 174 173 171 172 168 167 166 165 168 169 168 169 173 172 172 169 166 162 166 163 156 163 165 162 159 151 152
244 243 240 241 234 228 231 234 232 230 233 228 220 217 218 216 204 199 194 186 179 174 173 173 173 174 171 174 176 177 179 175 175 175 177 176 174 173 169 167 169 165 166 170 170 163 161 160 144
242 249 250 252 243 234 236 238 234 229 231 230 226 219 213 212 206 197 193 186 182 178 176 175 176 178 178 180 181 178 172 173 174 173 180 181 180 178 178 171 173 170 170 175 178 166 160 167 156
241 241 245 250 264 258 249 244 235 230 228 228 226 224 219 211 208 196 192 189 183 182 179 179 178 180 181 176 172 169 168 171 181 187 189 187 185 183 182 178 173 175 175 181 183 172 166 172 180
244 241 246 250 252 249 230 245 231 227 227 224 220 218 220 218 211 202 192 188 185 183 179 178 178 180 180 176 178 179 183 188 192 188 186 185 187 186 186 183 181 180 180 182 185 178 172 168 181
243 248 245 248 251 254 237 245 238 219 224 221 216 213 214 217 213 206 193 187 184 180 178 178 178 180 179 180 183 185 189 191 181 179 183 188 192 192 189 188 188 187 187 185 185 181 179 178 178
243 244 252 249 243 242 230 227 243 219 220 217 214 212 211 211 213 207 193 183 184 179 177 177 178 181 181 183 186 189 191 186 180 184 188 191 193 195 194 192 193 192 190 188 186 184 184 186 184
226 218 218 218 221 233 215 220 237 225 224 216 209 206 203 202 204 203 192 185 182 178 177 178 180 183 183 185 189 193 195 191 189 188 189 188 190 196 198 195 197 197 192 187 183 185 188 187 188
219 213 218 216 212 225 210 220 226 227 236 228 210 200 196 196 201 201 195 186 181 178 180 181 184 186 186 188 192 195 195 196 196 192 190 191 194 195 192 195 197 197 194 191 187 187 189 190 192
221 217 230 266 276 254 216 215 220 212 229 234 227 206 195 194 195 196 192 185 180 179 182 184 187 189 189 190 192 195 196 196 197 193 189 191 191 189 189 193 196 198 197 194 190 193 192 191 194
222 209 212 222 228 239 233 219 213 198 212 218 218 210 201 194 191 187 187 185 182 181 181 182 187 191 190 191 193 196 197 198 196 191 192 191 190 185 186 191 195 197 198 196 193 191 191 192 195
204 209 216 225 238 240 237 230 208 202 200 201 203 198 195 198 193 184 180 178 173 172 177 182 185 189 190 191 192 193 195 196 195 195 194 192 187 184 186 189 192 196 198 196 196 195 191 194 195
211 212 211 216 230 232 261 268 307 283 196 192 196 191 185 186 182 170 167 161 158 169 175 180 185 188 190 190 189 191 192 193 195 197 196 191 188 187 186 186 189 194 196 195 196 195 194 196 198
Height
1491 1493 1495 1498 1499 1496 1488 1474 1463 1459 1454 1453 1454 1456 1457 1460 1464 1473 1473 1474 1475 1477 1482 1487 1491 1496 1500 1504 1508 1511 1514 1516 1519 1521 1523 1525 1527 1528 1530 1531 1533 1534 1536 1537 1538 1539 1539 1540 1541
1489 1492 1496 1496 1494 1493 1480 1467 1462 1455 1452 1453 1455 1457 1459 1461 1463 1466 1470 1473 1475 1477 1481 1486 1491 1495 1500 1504 1507 1511 1513 1516 1519 1521 1523 1525 1527 1529 1530 1532 1533 1535 1536 1537 1538 1539 1540 1541 1542
1487 1491 1493 1489 1485 1481 1470 1455 1452 1450 1451 1454 1457 1460 1461 1463 1464 1465 1468 1471 1475 1478 1481 1486 1490 1495 1499 1503 1507 1510 1513 1516 1518 1521 1523 1525 1527 1529 1530 1532 1534 1535 1536 1537 1538 1540 1541 1541 1542
1487 1490 1488 1483 1475 1466 1460 1452 1448 1448 1451 1454 1458 1460 1461 1464 1464 1465 1467 1471 1474 1478 1481 1485 1490 1494 1499 1503 1506 1510 1513 1516 1518 1521 1523 1525 1527 1529 1531 1532 1534 1535 1536 1538 1539 1540 1541 1542 1543
1485 1485 1483 1477 1468 1460 1454 1450 1448 1449 1451 1454 1457 1458 1460 1463 1463 1465 1468 1471 1474 1477 1481 1485 1490 1494 1498 1502 1506 1509 1513 1516 1518 1521 1523 1525 1527 1529 1531 1532 1534 1536 1537 1538 1540 1541 1542 1543 1544
1482 1477 1476 1471 1462 1455 1451 1449 1447 1448 1449 1452 1455 1457 1460 1461 1462 1465 1468 1472 1475 1477 1480 1485 1490 1494 1498 1502 1505 1509 1512 1515 1518 1521 1523 1525 1527 1529 1531 1533 1534 1536 1537 1539 1540 1541 1542 1544 1545
1475 1471 1466 1460 1456 1450 1445 1445 1444 1446 1448 1450 1452 1454 1458 1460 1461 1464 1468 1472 1475 1477 1480 1484 1489 1494 1498 1501 1505 1508 1512 1515 1518 1520 1523 1525 1527 1529 1531 1533 1534 1536 1538 1539 1541 1542 1543 1544 1546
1468 1466 1459 1454 1451 1446 1441 1439 1440 1442 1445 1448 1450 1451 1454 1457 1459 1463 1468 1472 1475 1477 1480 1484 1488 1492 1497 1501 1504 1508 1511 1514 1517 1520 1522 1525 1527 1529 1531 1533 1534 1536 1538 1539 1541 1542 1544 1545 1546
1464 1464 1453 1446 1446 1443 1440 1438 1438 1440 1443 1446 1447 1448 1450 1452 1456 1462 1467 1471 1474 1476 1479 1483 1487 1491 1495 1499 1503 1507 1510 1514 1517 1519 1522 1524 1526 1528 1530 1532 1534 1536 1538 1540 1541 1543 1544 1546 1547
1455 1450 1440 1440 1440 1439 1437 1436 1436 1439 1442 1444 1446 1447 1449 1451 1455 1458 1462 1466 1470 1473 1477 1481 1485 1489 1494 1498 1501 1505 1509 1512 1515 1518 1521 1523 1526 1528 1530 1532 1534 1536 1538 1540 1542 1543 1545 1546 1548
1444 1439 1436 1438 1438 1437 1435 1435 1435 1436 1439 1441 1443 1445 1447 1450 1454 1456 1460 1463 1466 1470 1475 1479 1484 1488 1492 1495 1499 1503 1507 1510 1514 1517 1520 1523 1525 1527 1529 1532 1534 1536 1538 1540 1542 1544 1545 1547 1548
1438 1432 1434 1434 1436 1435 1434 1434 1434 1433 1436 1438 1439 1440 1443 1447 1451 1453 1457 1461 1465 1469 1473 1478 1482 1486 1490 1493 1497 1501 1505 1508 1512 1515 1519 1522 1524 1526 1528 1531 1533 1535 1537 1540 1542 1544 1546 1547 1549
1432 1429 1429 1431 1432 1431 1432 1431 1431 1431 1433 1435 1436 1437 1439 1442 1446 1451 1455 1459 1463 1467 1471 1475 1479 1483 1487 1491 1496 1500 1503 1507 1511 1514 1517 1520 1523 1525 1527 1530 1532 1535 1537 1539 1542 1544 1546 1547 1549
1426 1426 1426 1426 1426 1427 1428 1427 1429 1427 1431 1432 1433 1434 1436 1439 1443 1448 1452 1456 1459 1463 1468 1473 1477 1481 1485 1489 1493 1497 1501 1505 1509 1512 1516 1519 1521 1524 1526 1529 1532 1534 1536 1539 1541 1544 1546 1547 1548
1426 1424 1421 1419 1421 1422 1426 1424 1421 1423 1427 1428 1429 1431 1433 1436 1440 1443 1447 1451 1454 1459 1464 1469 1474 1478 1482 1486 1491 1495 1499 1503 1506 1510 1514 1517 1520 1522 1525 1528 1530 1533 1535 1538 1540 1543 1545 1546 1548
1421 1422 1418 1412 1414 1417 1424 1417 1412 1418 1422 1422 1424 1426 1428 1432 1435 1439 1443 1447 1451 1456 1460 1465 1470 1475 1479 1484 1488 1493 1496 1500 1504 1507 1511 1514 1517 1520 1523 1526 1528 1531 1534 1536 1539 1541 1543 1545 1546
1418 1415 1411 1408 1407 1409 1412 1408 1406 1411 1413 1414 1417 1420 1422 1426 1429 1433 1438 1442 1447 1451 1455 1460 1466 1471 1476 1481 1486 1490 1494 1497 1501 1504 1508 1512 1515 1518 1520 1523 1526 1529 1531 1534 1537 1539 1541 1543 1545
1409 1407 1404 1402 1400 1402 1403 1401 1402 1403 1404 1406 1409 1413 1415 1418 1422 1427 1432 1437 1442 1446 1451 1456 1461 1467 1472 1478 1483 1487 1491 1494 1497 1501 1504 1508 1512 1515 1518 1521 1524 1526 1529 1532 1534 1537 1540 1542 1543
1404 1401 1399 1395 1393 1396 1395 1394 1395 1397 1398 1399 1401 1404 1408 1411 1416 1421 1425 1430 1436 1441 1445 1450 1455 1461 1467 1472 1476 1480 1484 1488 1493 1497 1501 1504 1508 1511 1514 1517 1520 1523 1526 1529 1532 1534 1537 1539 1541
1403 1401 1398 1394 1389 1389 1390 1388 1388 1389 1390 1392 1394 1396 1400 1404 1408 1413 1418 1423 1428 1433 1439 1444 1449 1454 1460 1464 1469 1474 1479 1484 1489 1493 1497 1500 1504 1507 1510 1513 1516 1519 1523 1526 1529 1531 1534 1536 1538
1398 1399 1397 1395 1390 1385 1387 1387 1383 1380 1382 1385 1387 1389 1392 1396 1400 1405 1410 1415 1420 1426 1431 1437 1442 1447 1453 1458 1465 1471 1477 1482 1485 1488 1491 1495 1499 1502 1506 1509 1513 1516 1519 1522 1525 1527 1530 1532 1535
1394 1392 1393 1393 1395 1393 1390 1391 1379 1375 1375 1375 1377 1381 1385 1388 1393 1397 1402 1407 1413 1418 1425 1430 1435 1441 1446 1452 1458 1462 1467 1470 1474 1479 1484 1489 1494 1497 1501 1505 1508 1511 1514 1517 1521 1524 1526 1529 1531
1390 1389 1390 1391 1393 1394 1388 1390 1377 1368 1368 1367 1368 1371 1376 1381 1385 1390 1394 1399 1405 1412 1418 1424 1430 1435 1440 1446 1450 1455 1460 1464 1470 1475 1480 1484 1488 1492 1496 1500 1503 1506 1509 1513 1516 1519 1522 1524 1526
1385 1388 1389 1390 1393 1391 1383 1386 1375 1362 1357 1357 1359 1363 1368 1373 1378 1382 1388 1393 1399 1405 1411 1417 1423 1429 1434 1439 1444 1449 1453 1458 1464 1468 1472 1477 1481 1486 1490 1493 1497 1501 1504 1507 1511 1514 1517 1520 1522
1382 1389 1393 1390 1387 1379 1370 1374 1366 1352 1347 1349 1352 1355 1360 1366 1371 1375 1380 1385 1391 1397 1403 1409 1416 1422 1427 1432 1437 1442 1447 1452 1456 1461 1465 1470 1474 1478 1482 1486 1490 1494 1498 1502 1506 1509 1512 1515 1518
1377 1383 1384 1380 1376 1369 1362 1362 1354 1346 1343 1342 1345 1348 1353 1358 1364 1368 1373 1378 1383 1389 1395 1401 1408 1414 1420 1425 1430 1435 1441 1446 1451 1455 1459 1463 1467 1471 1475 1480 1484 1488 1493 1497 1500 1504 1507 1510 1513
1375 1376 1377 1378 1369 1364 1354 1347 1343 1339 1339 1339 1341 1343 1346 1351 1357 1362 1367 1372 1377 1382 1388 1394 1400 1407 1413 1418 1423 1429 1434 1439 1444 1449 1454 1458 1461 1466 1470 1474 1478 1482 1487 1491 1495 1498 1501 1504 1507
1372 1373 1377 1379 1374 1367 1353 1344 1343 1339 1338 1337 1338 1340 1343 1347 1352 1356 1361 1366 1371 1376 1382 1388 1393 1399 1405 1411 1417 1422 1427 1432 1437 1443 1447 1451 1455 1459 1463 1467 1471 1476 1480 1485 1489 1492 1496 1499 1502
1372 1374 1375 1375 1371 1366 1357 1347 1330 1332 1332 1334 1335 1337 1340 1345 1348 1352 1356 1361 1366 1371 1376 1382 1387 1393 1399 1405 1410 1415 1421 1426 1431 1436 1441 1445 1450 1453 1457 1461 1465 1469 1474 1478 1482 1486 1490 1493 1496
1373 1374 1376 1378 1372 1364 1362 1349 1328 1328 1328 1330 1332 1335 1338 1342 1346 1349 1353 1357 1361 1366 1371 1376 1381 1386 1392 1398 1404 1409 1414 1419 1424 1429 1434 1439 1443 1447 1451 1455 1459 1463 1467 1472 1476 1479 1483 1486 1489